SCP
0 0 0 0 0 0 0 0 0 0 0 0 0 0 0 0 0 0 0 0 0 0 0 0 0 0 0 0 0 0 0 0 0 0 0 0 0 0 0 0 0 0 0 0
0 0 0 0 0 0 0 0 0 0 0 0 0 0 0 0 0 0 0 0 0 0 0 0 0 0 0 0 0 0 0 0 0 0 0 0 0 0 0 0 0 0 0 0
0 0 0 0 0 0 0 0 0 0 0 0 0 0 0 0 0 0 0 0 0 0 0 0 0 0 0 0 0 0 0 0 0 0 0 0 0 0 0 0 0 0 0 0
0 0 0 0 0 0 0 0 0 0 0 0 0 0 0 0 0 0 0 0 0 0 0 0 0 0 0 0 0 0 0 0 0 0 0 0 0 0 0 0 0 0 0 0
0 0 0 0 0 0 0 0 0 0 0 0 0 0 0 0 0 0 0 0 0 0 0 0 0 0 0 0 0 0 0 0 0 0 0 0 0 0 0 0 0 0 0 0
0 0 0 0 0 0 0 0 0 0 0 0 0 0 0 0 0 0 0 0 0 0 0 0 0 0 0 0 0 0 0 0 0 0 0 0 0 0 0 0 0 0 0 0
0 0 0 0 0 0 0 0 0 0 0 0 0 0 0 0 0 0 0 0 0 0 0 0 0 0 0 0 0 0 0 0 0 0 0 0 0 0 0 0 0 0 0 0
0 0 0 0 0 0 0 0 0 0 0 0 0 0 0 0 0 0 0 0 0 0 0 0 0 0 0 0 0 0 0 0 0 0 0 0 0 0 0 0 0 0 0 0
0 0 0 0 0 0 0 0 0 0 0 0 0 0 0 0 0 0 0 0 0 0 0 0 0 0 0 0 0 0 0 0 0 0 0 0 0 0 0 0 0 0 0 0
0 0 0 0 0 0 0 0 0 0 0 0 0 0 0 0 0 0 0 0 0 0 0 0 0 0 0 0 0 0 0 0 0 0 0 0 0 0 0 0 0 0 0 0
0 0 0 0 0 0 0 0 0 0 0 0 0 0 0 0 0 0 0 0 0 0 0 0 0 0 0 0 0 0 0 0 0 0 0 0 0 0 0 0 0 0 0 0
0 0 0 0 0 0 0 0 0 0 0 0 0 0 0 0 0 0 0 0 0 0 0 0 0 0 0 0 0 0 0 0 0 0 0 0 0 0 0 0 0 0 0 0
0 0 0 0 0 0 0 0 0 0 0 0 0 0 0 0 0 0 0 0 0 0 0 0 0 0 0 0 0 0 0 0 0 0 0 0 0 0 0 0 0 0 0 0
0 0 0 0 0 0 0 0 0 0 0 0 0 0 0 0 0 0 0 0 0 0 0 0 0 0 0 0 0 0 0 0 0 0 0 0 0 0 0 0 0 0 0 0
0 0 0 0 0 0 0 0 0 0 0 0 0 0 0 0 0 0 0 0 0 0 0 0 0 0 0 0 0 0 0 0 0 0 0 0 0 0 0 0 0 0 0 0
0 0 0 0 0 0 0 0 0 0 0 0 0 0 0 0 0 0 0 0 0 0 0 0 0 0 0 0 0 0 0 0 0 0 0 0 0 0 0 0 0 0 0 0
0 0 0 0 0 0 0 0 0 0 0 0 0 0 0 0 0 0 0 0 0 0 0 0 0 0 0 0 0 0 0 0 0 0 0 0 0 0 0 0 0 0 0 0
0 0 0 0 0 0 0 0 0 0 0 0 0 0 0 0 0 0 0 0 0 0 0 0 0 0 0 0 0 0 0 0 0 0 0 0 0 0 0 0 0 0 0 0
0 0 0 0 0 0 0 0 0 0 0 0 0 0 0 0 0 0 0 0 0 0 0 0 0 0 0 0 0 0 0 0 0 0 0 0 0 0 0 0 0 0 0 0
0 0 0 0 0 0 0 0 0 0 0 0 0 0 0 0 0 0 0 0 0 0 0 0 0 0 0 0 0 0 0 0 0 0 0 0 0 0 0 0 0 0 0 0
0 0 0 0 0 0 0 0 0 0 0 0 0 0 0 0 0 0 0 0 0 0 0 0 0 0 0 0 0 0 0 0 0 0 0 0 0 0 0 0 0 0 0 0
0 0 0 0 0 0 0 0 0 0 0 0 0 0 0 0 0 0 0 0 0 0 0 0 0 0 0 0 0 0 0 0 0 0 0 0 0 0 0 0 0 0 0 0
0 0 0 0 0 0 0 0 0 0 0 0 0 0 0 0 0 0 0 0 0 0 0 0 0 0 0 0 0 0 0 0 0 0 0 0 0 0 0 0 0 0 0 0
0 0 0 0 0 0 0 0 0 0 0 0 0 0 0 0 0 0 0 0 0 0 0 0 0 0 0 0 0 0 0 0 0 0 0 0 0 0 0 0 0 0 0 0
0 0 0 0 0 0 0 0 0 0 0 0 0 0 0 0 0 0 0 0 0 0 0 0 0 0 0 0 0 0 0 0 0 0 0 0 0 0 0 0 0 0 0 0
0 0 0 0 0 0 0 0 0 0 0 0 0 0 0 0 0 0 0 0 0 0 0 0 0 0 0 0 0 0 0 0 0 0 0 0 0 0 0 0 0 0 0 0
0 0 0 0 0 0 0 0 0 0 0 0 0 0 0 0 0 0 0 0 0 0 0 0 0 0 0 0 0 0 0 0 0 0 0 0 0 0 0 0 0 0 0 0
Wind_Speed
3 2 1 2 4 4 4 3 1 5 5 6 8 9 10 8 9 11 13 15 15 15 15 15 16 15 16 16 16 16 15 14 14 14 14 15 15 15 15 14 15 15 16 16
4 4 3 5 7 5 4 2 2 3 4 6 8 8 9 6 9 12 13 14 15 15 16 15 15 15 15 15 15 15 14 14 14 14 14 14 14 13 14 13 12 12 13 14
4 5 3 3 2 3 2 1 0 2 6 9 9 12 11 6 9 12 13 13 14 14 14 13 13 14 14 14 14 14 14 14 14 14 14 13 14 14 12 12 11 10 10 11
2 5 1 4 3 2 3 2 2 5 7 7 8 10 2 5 8 9 10 11 11 11 12 11 11 11 12 11 12 13 13 14 14 14 13 13 13 13 12 10 9 8 7 8
2 2 5 2 4 3 3 4 2 4 7 8 9 6 2 6 8 7 7 8 7 8 8 10 11 11 11 11 11 12 13 13 13 13 13 12 13 12 10 9 9 9 7 6
3 1 5 4 5 4 0 4 4 3 6 7 10 9 3 8 8 6 7 7 8 8 8 10 11 10 10 10 11 13 13 13 12 12 12 11 12 11 10 8 9 10 10 9
3 4 7 5 5 2 3 6 6 3 4 5 5 5 8 9 7 6 7 7 8 8 8 9 10 10 9 9 11 13 13 13 13 12 12 10 10 10 10 9 9 9 9 9
4 3 8 4 1 2 5 5 2 2 2 4 6 6 7 7 7 8 8 8 8 8 9 9 9 9 9 10 11 12 13 13 12 11 11 12 11 10 9 9 8 7 6 6
8 8 5 2 3 4 3 2 0 1 3 3 4 5 6 6 5 6 7 8 7 7 8 8 8 8 9 10 11 13 12 12 10 11 10 11 10 9 8 8 8 7 5 5
3 4 3 3 3 2 1 2 2 2 2 0 2 4 4 5 6 6 7 6 6 8 8 8 8 9 8 10 11 11 12 11 10 8 9 9 9 9 9 8 9 9 8 7
3 3 1 1 1 1 2 3 2 1 1 2 2 3 4 4 5 6 7 6 6 7 7 8 8 9 10 10 10 10 10 11 10 9 8 7 8 8 10 7 11 10 7 7
6 5 4 3 2 1 3 3 2 1 2 4 4 3 4 4 4 5 6 6 7 7 9 9 9 10 10 10 10 9 10 10 9 7 6 6 6 7 13 14 18 18 16 13
5 4 4 2 1 1 3 3 2 3 3 3 3 3 3 4 5 5 6 7 7 9 9 9 10 10 11 11 12 10 10 11 9 8 7 7 8 7 7 10 14 16 16 16
3 4 2 1 1 3 5 4 5 6 5 4 3 3 3 4 5 6 6 7 8 9 9 9 10 11 11 11 12 11 11 13 12 8 7 6 6 7 7 7 7 6 10 15
4 3 3 3 5 4 4 4 5 4 3 3 3 4 4 5 5 6 7 8 9 9 9 10 11 12 12 12 13 13 12 10 10 9 8 7 7 7 7 7 6 6 5 7
4 4 4 4 4 4 3 3 4 3 2 2 3 4 4 5 5 6 7 8 9 10 11 11 11 13 13 13 14 12 11 20 19 13 10 9 9 9 8 7 7 6 6 5
4 1 1 2 4 4 3 4 4 3 2 2 3 4 5 5 6 7 9 9 9 10 10 11 12 15 15 13 13 12 12 14 22 16 10 10 9 9 9 8 8 7 6 8
4 3 2 3 4 6 6 5 5 3 2 1 2 3 5 6 7 9 10 10 10 10 9 9 13 15 12 13 13 12 12 12 12 11 11 10 11 9 9 8 9 10 7 8
5 5 5 5 5 6 6 5 4 3 2 2 3 3 4 5 6 8 9 10 10 12 12 13 22 15 14 18 20 11 11 12 12 12 11 15 14 9 9 9 9 9 8 7
6 7 7 6 6 5 5 5 5 3 2 2 2 4 5 6 7 8 9 8 6 8 13 16 14 12 14 16 20 11 12 13 13 12 12 12 12 11 10 10 9 8 8 7
7 7 7 7 6 6 5 6 5 4 2 2 2 3 5 7 7 7 8 9 9 12 15 20 13 12 14 16 17 11 12 12 13 13 13 13 13 12 11 10 8 8 7 6
7 7 8 8 7 6 4 4 4 4 2 1 2 4 5 7 8 8 7 6 10 20 14 9 10 17 22 20 11 12 13 13 13 12 12 13 13 13 12 10 7 5 4 4
7 8 9 8 8 6 5 3 3 3 1 1 3 5 5 6 6 6 9 8 10 19 13 9 19 27 27 14 11 12 14 14 13 12 12 12 13 13 13 12 8 4 1 2
7 8 8 7 7 6 5 4 2 1 1 3 4 5 5 5 6 4 6 14 19 20 11 16 25 26 23 11 11 12 13 13 12 11 11 11 11 11 12 11 10 7 5 4
8 8 7 8 7 5 5 4 3 1 2 2 4 4 4 3 4 8 9 10 17 17 10 16 24 24 15 11 12 13 13 13 14 12 10 9 10 10 10 10 10 8 6 5
7 7 6 6 5 5 4 4 3 2 1 1 2 3 4 4 5 6 7 8 11 15 11 9 11 14 11 12 13 14 13 14 13 10 9 8 8 8 8 8 9 7 6 5
7 6 5 4 4 5 4 4 3 2 2 0 2 3 4 5 6 7 8 8 9 9 9 9 9 10 11 12 12 13 13 13 12 10 8 6 5 5 6 6 5 5 4 4
Wind_Direction
275 332 355 5 359 36 82 99 168 289 294 311 319 308 310 323 341 347 350 353 355 354 352 354 352 348 345 341 340 340 340 341 341 340 341 344 346 349 352 357 3 6 10 14
318 21 48 56 24 38 60 58 332 324 296 286 292 297 321 346 351 349 350 352 352 352 352 352 349 344 342 339 339 339 340 339 338 340 342 344 344 347 350 354 359 7 12 13
287 330 62 21 357 23 345 339 222 279 272 293 308 324 328 352 354 350 350 351 352 352 349 346 342 339 337 336 337 341 341 340 341 342 343 345 346 347 346 347 351 1 9 11
302 24 19 235 233 241 268 226 214 261 274 282 290 297 329 31 359 352 352 353 352 349 343 336 332 332 331 333 338 341 342 342 342 343 342 344 347 346 343 340 344 349 358 3
92 342 286 259 275 268 265 247 212 283 294 306 313 303 129 34 11 360 3 359 351 344 332 327 328 329 330 334 339 342 343 342 341 342 342 347 348 344 340 341 345 343 346 345
116 249 259 239 257 279 259 275 256 289 309 322 339 343 337 10 5 13 12 359 350 341 331 331 330 330 330 334 341 343 341 338 338 341 341 347 347 343 340 343 351 355 3 7
166 227 264 250 270 39 71 277 293 323 335 332 328 303 327 352 358 15 9 353 344 335 327 325 327 331 331 335 340 338 338 338 339 341 339 345 342 344 343 345 349 354 1 7
162 205 260 254 112 149 238 257 291 323 308 298 296 316 336 344 353 4 356 346 338 332 327 323 325 332 335 338 335 337 338 339 339 342 344 348 340 341 343 345 343 338 345 356
186 209 222 223 188 212 226 259 221 232 272 283 302 322 337 344 355 355 345 335 329 324 322 322 324 332 333 333 335 339 338 337 336 345 344 344 341 340 341 344 342 337 339 345
211 243 201 186 193 190 159 166 171 218 269 280 321 329 344 350 353 347 334 329 325 327 326 323 326 334 329 328 335 337 336 334 336 342 343 340 344 346 344 344 343 353 355 345
225 258 176 238 286 192 161 151 167 281 50 61 23 10 4 350 342 332 332 325 326 320 316 322 327 328 328 331 330 331 332 333 332 337 332 331 337 340 343 335 346 354 348 343
211 211 186 252 282 187 177 177 183 171 82 61 56 28 2 337 322 318 319 317 317 320 330 328 325 323 321 323 325 325 333 332 327 328 328 330 323 329 338 343 346 350 348 348
179 179 184 222 58 96 132 139 128 102 93 78 54 29 356 323 313 323 325 324 323 327 329 323 322 319 319 321 322 319 319 321 317 321 320 322 325 323 321 328 338 343 345 345
137 125 114 47 57 95 112 113 102 92 84 76 46 13 343 328 325 332 327 319 321 322 320 318 317 316 315 315 316 315 310 310 311 300 297 298 301 304 304 308 313 315 330 337
104 109 135 119 110 114 114 113 105 93 76 49 18 359 344 338 329 322 316 323 325 320 316 315 315 315 314 313 314 313 309 302 297 292 285 286 292 292 290 291 292 295 300 314
118 103 117 133 147 146 135 121 116 106 77 34 2 345 333 322 314 315 320 327 324 316 312 311 310 311 313 311 312 309 302 302 305 299 295 296 294 289 287 283 282 280 280 283
129 150 170 175 165 150 129 117 121 123 103 38 348 337 336 332 330 330 325 318 307 298 298 301 306 309 306 306 306 303 299 299 303 304 299 295 290 284 279 274 270 272 270 274
135 152 169 171 158 142 127 119 120 118 102 45 20 6 352 344 332 319 315 314 314 310 303 304 306 306 306 310 305 299 300 302 306 309 309 305 299 290 283 275 271 271 269 273
121 123 115 110 118 126 130 134 134 127 103 68 36 357 328 319 311 308 311 316 318 320 315 311 315 324 314 313 314 310 316 320 320 317 312 310 310 299 289 280 273 266 261 260
124 123 118 110 107 119 132 141 141 129 106 72 28 352 338 326 317 315 315 305 289 290 299 310 322 321 315 313 326 334 331 325 320 318 315 311 306 301 294 285 275 264 254 248
145 141 135 130 124 126 132 138 138 132 110 72 31 342 321 312 313 315 317 317 315 315 318 330 333 319 318 336 344 336 330 327 324 321 320 319 316 312 305 294 280 265 250 239
152 150 147 143 135 127 123 128 135 134 118 42 346 327 322 320 321 316 296 282 305 323 330 327 323 329 343 350 340 334 331 330 328 327 329 332 333 332 328 320 301 275 246 218
154 153 152 152 147 140 131 132 143 145 145 323 322 319 315 308 310 316 322 319 319 328 335 325 334 343 352 350 338 335 333 333 333 335 339 342 344 345 347 348 351 2 69 141
144 144 141 133 130 137 154 174 180 184 240 289 292 293 296 310 313 287 293 317 330 335 337 335 345 350 354 346 337 336 335 334 335 342 346 349 354 358 4 9 16 28 45 63
133 133 138 145 155 167 170 169 176 223 260 281 292 295 294 290 293 307 314 317 329 341 338 339 348 350 350 339 339 338 338 338 344 347 349 355 1 5 10 15 21 27 33 38
144 153 160 166 163 158 157 162 174 187 186 315 316 314 314 309 303 308 317 322 330 342 342 337 339 344 343 341 340 340 340 338 340 344 349 358 1 6 10 13 16 20 20 21
132 138 143 146 158 164 164 169 166 168 171 234 306 317 323 326 329 331 332 336 338 340 339 341 341 342 342 343 342 342 342 342 341 344 348 354 359 359 1 3 4 2 2 5